Regional Weather Roundup
Issued by NWS

Home | Current Version | Previous Version | Graphics & Text | Print | Product List | Glossary On
Versions: 1 2 3 4 5 6 7 8 9 10 11 12 13 14 15 16 17 18 19 20 21 22 23 24 25 26 27
000
ASUS45 KTFX 300910
RWRMT
MONTANA REGIONAL WEATHER ROUNDUP
NATIONAL WEATHER SERVICE GREAT FALLS MT
300 AM MDT SAT APR 30 2016

NOTE: "FAIR" INDICATES FEW OR NO CLOUDS BELOW 12000 FEET WITH NO
SIGNIFICANT WEATHER AND/OR OBSTRUCTIONS TO VISIBILITY.

MTZ001>007-043-301000-
WEST OF THE DIVIDE

CITY           SKY/WX    TMP DP  RH WIND       PRES   REMARKS
KALISPELL      CLOUDY    38  36  92 CALM      30.06R
MISSOULA       LGT RAIN  43  39  86 CALM      30.08S
BUTTE          CLOUDY    36  33  89 NW5       30.02S
MULLAN PASS    CLOUDY    31  30  96 NW3       30.05S
ANACONDA         N/A     37  36  93 CALM      30.03S
DEER LODGE       N/A     39  36  87 CALM      30.05R
EUREKA           N/A     43  37  81 CALM      30.08S
HAMILTON         N/A     43  36  75 NW7       30.06R
LIBBY            N/A     41  37  87 CALM      30.09R
PLAINS           N/A     44  38  79 CALM      30.08R
THOMPSON FALLS   N/A     44  40  86 CALM      30.12R
$$

MTZ008-052>055-301000-
SOUTHWEST MONTANA

CITY           SKY/WX    TMP DP  RH WIND       PRES   REMARKS
BOZEMAN        CLOUDY    40  31  70 NW8       30.02R
DILLON         CLOUDY    40  32  73 NE3       29.98R
ENNIS          CLOUDY    39  32  75 N12       30.03S WCI  32
THREE FORKS      N/A     37  37 100 CALM      30.01R
TWIN BRIDGES     N/A     40  28  62 N14       29.97S
$$

MTZ009-010-012-014-046-048-049-054-301000-
EAST SLOPES AND CENTRAL MONTANA

CITY           SKY/WX    TMP DP  RH WIND       PRES   REMARKS
CUT BANK       PTCLDY    33  31  92 NE6       30.08S WCI  28
GREAT FALLS    CLOUDY    39  34  82 SE3       30.05R
HELENA         CLOUDY    43  33  68 W5        30.03R
CHOTEAU          N/A     34  34 100 N8        30.07S WCI  27
CONRAD           N/A     37  37 100 NE2       30.09R
$$

MTZ011-013-016-021-045-047-050-051-301000-
NORTH CENTRAL MONTANA

CITY           SKY/WX    TMP DP  RH WIND       PRES   REMARKS
HAVRE          CLOUDY    43  39  86 E10       30.10R
LEWISTOWN      CLOUDY    39  35  86 E6        30.07S
N BAR RANCH    CLOUDY    37  36  93 E3        30.10R
CHINOOK          N/A     45  41  87 E3        30.12R
$$

MTZ017>020-022>027-061-062-301000-
NORTHEAST MONTANA

CITY           SKY/WX    TMP DP  RH WIND       PRES   REMARKS
GLASGOW        CLOUDY    45  35  68 NE9       30.14R
JORDAN           N/A     44  37  76 NE5       30.11R
SIDNEY         CLEAR     37  28  70 N3        30.17R
WOLF POINT     CLOUDY    44  33  65 NE9       30.16R
PLENTYWOOD       N/A     37  27  65 NE8       30.19R WCI  31
POPLAR           N/A     43  30  61 E9        30.16S
SCOBEY           N/A     42  21  43 E8        30.14R
$$

MTZ028>42-056>058-301000-
SOUTHCENTRAL AND SOUTHEAST MONTANA

CITY           SKY/WX    TMP DP  RH WIND       PRES   REMARKS
BAKER          CLOUDY    39  33  79 CALM      30.10S
BILLINGS       CLOUDY    41  37  86 NE7       30.05S
LIVINGSTON     CLOUDY    40  32  73 E9        30.03R
MILES CITY     CLOUDY    45  37  73 NE3       30.09R
EKALAKA          N/A     34  29  82 SE3       30.05S
FORSYTH          N/A     45  39  81 E5        30.09R
LAUREL           N/A     41  31  68 N5        30.03R
ROUNDUP          N/A     41  34  76 CALM      29.98S
$$

REGIONAL REPORTS...DAKOTAS

CITY           SKY/WX    TMP DP  RH WIND       PRES   REMARKS
WILLISTON      CLEAR     43  29  57 CALM      30.18R
MINOT          CLEAR     37  27  67 NW3       30.20R
DICKINSON      PTCLDY    35  28  75 NE8       30.11S WCI  29
BEACH          CLOUDY    37  34  87 E9        30.16R WCI  31
CROSBY           N/A     32  27  80 E7        30.24R WCI  26
WATFORD CITY     N/A     32  28  86 SE7       30.18R WCI  26
BISMARCK       CLOUDY    39  32  76 NE6       30.14R
GRAND FORKS    CLEAR     39  31  72 E9        30.21R
FARGO          CLEAR     45  32  60 E9        30.17R
BUFFALO SD       N/A     40  34  79 N6        30.01S
RAPID CITY     CLOUDY    40  37  89 N10       30.02F
$$

REGIONAL REPORTS...WYOMING/IDAHO/WASHINGTON

CITY           SKY/WX    TMP DP  RH WIND       PRES   REMARKS
GILLETTE       CLOUDY    38  34  85 NE8       30.01S
SHERIDAN       CLOUDY    40  36  86 NE3       30.04S
BUFFALO WY       N/A    N/A N/A N/A MISG      30.02S
CODY           CLOUDY    37  36  93 N5        30.00R
YELLOWSTONE LA   N/A     31  24  75 CALM      29.99S
IDAHO FALLS    CLOUDY    34  32  92 CALM      29.93R
SALMON         CLOUDY    37  32  81 CALM      30.01S
BOISE          CLEAR     45  37  73 NW17      29.97R
SPOKANE        LGT RAIN  47  44  90 SE8       30.08R
$$

REGIONAL REPORTS...ALBERTA

CITY           SKY/WX    TMP DP  RH WIND       PRES   REMARKS
EDMONTON       CLEAR     39  28  65 E2        30.11R
CALGARY        MOCLDY    43  32  65 S7        30.09R
LETHBRIDGE     CLOUDY    39  37  93 S6        30.09S
MEDICINE HAT   CLOUDY    46  39  76 N7        30.12R
WATERTON GATE    N/A     28  27  93 SW7         N/A  WCI  21
CARDSTON         N/A     39  36  87 SW2         N/A
MILK RIVER       N/A     32  30  93 SE1         N/A
ONEFOUR          N/A     41  37  87 E8          N/A
$$

REGIONAL REPORTS...SASKATCHEWAN

CITY           SKY/WX    TMP DP  RH WIND       PRES   REMARKS
SWIFT CURRENT  CLOUDY    41  30  65 SE7       30.17R
REGINA         CLEAR     41  23  48 E14       30.24S
SASKATOON      CLEAR     41  27  56 SE10      30.25R
VAL MARIE        N/A     41  34  75 NE7         N/A
ROCKGLEN         N/A     39  27  60 E6          N/A
ASSINIBOIA       N/A     45  37  76 SE5         N/A
$$




USA.gov is the U.S. government's official web portal to all federal, state and local government web resources and services.